• In France
  • List of Countries
  • For 7 days
  • Water Temperature
  • Satellite Maps
  • Weather Map
  • Weather Widgets
  • user-avatar
    Login

    Hourly Weather Algiers

    Today, 22 June, Friday

    Time Temperature Precipitation Wind Pressure Humidity
    00:00 +23°C° 0 mm 2 mps 749 mmHg 82%
    01:00 +23°C° 0 mm 2 mps 749 mmHg 82%
    02:00 +23°C° 0 mm 2 mps 749 mmHg 83%
    03:00 +23°C° 0 mm 2 mps 749 mmHg 83%
    04:00 +23°C° 0 mm 2 mps 749 mmHg 81%
    05:00 +24°C° 0 mm 2 mps 749 mmHg 78%
    06:00 +24°C° 0 mm 2 mps 749 mmHg 76%
    07:00 +26°C° 0 mm 2 mps 749 mmHg 68%
    08:00 +27°C° 0 mm 3 mps 749 mmHg 60%
    09:00 +29°C° 0 mm 3 mps 749 mmHg 52%
    10:00 +30°C° 0 mm 3 mps 749 mmHg 49%
    11:00 +32°C° 0 mm 4 mps 749 mmHg 46%
    12:00 +33°C° 0 mm 4 mps 749 mmHg 43%
    13:00 +33°C° 0 mm 5 mps 749 mmHg 43%
    14:00 +33°C° 0 mm 5 mps 749 mmHg 44%
    15:00 +34°C° 0 mm 5 mps 748 mmHg 45%
    16:00 +33°C° 0 mm 5 mps 748 mmHg 47%
    17:00 +32°C° 0 mm 5 mps 748 mmHg 50%
    18:00 +29°C° 0 mm 5 mps 749 mmHg 53%
    19:00 +28°C° 0 mm 4 mps 749 mmHg 58%
    20:00 +27°C° 0 mm 4 mps 749 mmHg 64%
    21:00 +25°C° 0 mm 4 mps 750 mmHg 69%
    22:00 +25°C° 0 mm 3 mps 750 mmHg 69%
    23:00 +25°C° 0 mm 3 mps 750 mmHg 70%

    Tomorrow, 23 June, Saturday

    Time Temperature Precipitation Wind Pressure Humidity
    00:00 +25°C° 0 mm 3 mps 750 mmHg 70%
    01:00 +25°C° 0 mm 3 mps 749 mmHg 69%
    02:00 +25°C° 0 mm 3 mps 749 mmHg 68%
    03:00 +24°C° 0 mm 3 mps 749 mmHg 66%
    04:00 +25°C° 0 mm 3 mps 749 mmHg 63%
    05:00 +26°C° 0 mm 3 mps 749 mmHg 60%
    06:00 +26°C° 0 mm 3 mps 749 mmHg 57%
    07:00 +28°C° 0 mm 4 mps 749 mmHg 49%
    08:00 +30°C° 0 mm 4 mps 750 mmHg 41%
    09:00 +33°C° 0 mm 4 mps 750 mmHg 34%
    10:00 +34°C° 0 mm 5 mps 750 mmHg 31%
    11:00 +35°C° 0 mm 6 mps 750 mmHg 29%
    12:00 +36°C° 0 mm 6 mps 750 mmHg 27%
    13:00 +36°C° 0 mm 6 mps 750 mmHg 29%
    14:00 +36°C° 0 mm 6 mps 749 mmHg 30%
    15:00 +36°C° 0 mm 7 mps 749 mmHg 32%
    16:00 +35°C° 0 mm 6 mps 749 mmHg 36%
    17:00 +34°C° 0 mm 6 mps 749 mmHg 41%
    18:00 +32°C° 0 mm 6 mps 749 mmHg 46%
    19:00 +30°C° 0 mm 6 mps 749 mmHg 51%
    20:00 +28°C° 0 mm 5 mps 749 mmHg 57%
    21:00 +27°C° 0 mm 5 mps 750 mmHg 62%
    22:00 +27°C° 0 mm 4 mps 750 mmHg 61%
    23:00 +27°C° 0 mm 4 mps 749 mmHg 60%

    Day after tomorrow, 24 June, Sunday

    Time Temperature Precipitation Wind Pressure Humidity
    00:00 +27°C° 0 mm 4 mps 749 mmHg 59%
    01:00 +26°C° 0 mm 4 mps 749 mmHg 58%
    02:00 +26°C° 0 mm 4 mps 749 mmHg 57%
    03:00 +26°C° 0 mm 3 mps 749 mmHg 55%
    04:00 +27°C° 0 mm 3 mps 749 mmHg 53%
    05:00 +27°C° 0 mm 3 mps 749 mmHg 51%
    06:00 +28°C° 0 mm 3 mps 749 mmHg 49%
    07:00 +30°C° 0 mm 4 mps 749 mmHg 44%
    08:00 +33°C° 0 mm 4 mps 749 mmHg 39%
    09:00 +34°C° 0 mm 4 mps 749 mmHg 34%
    10:00 +35°C° 0 mm 5 mps 749 mmHg 33%
    11:00 +36°C° 0 mm 5 mps 749 mmHg 32%
    12:00 +37°C° 0 mm 5 mps 749 mmHg 30%
    13:00 +38°C° 0 mm 6 mps 748 mmHg 31%
    14:00 +38°C° 0 mm 6 mps 748 mmHg 32%
    15:00 +38°C° 0 mm 6 mps 747 mmHg 33%
    16:00 +36°C° 0 mm 6 mps 747 mmHg 36%
    17:00 +35°C° 0 mm 5 mps 747 mmHg 39%
    18:00 +34°C° 0 mm 5 mps 747 mmHg 42%
    19:00 +33°C° 0 mm 4 mps 747 mmHg 46%
    20:00 +30°C° 0 mm 4 mps 747 mmHg 49%
    21:00 +29°C° 0 mm 3 mps 748 mmHg 53%
    22:00 +29°C° 0 mm 3 mps 748 mmHg 52%
    23:00 +28°C° 0 mm 3 mps 747 mmHg 51%

    25 June, Monday

    Time Temperature Precipitation Wind Pressure Humidity
    00:00 +28°C° 0 mm 4 mps 747 mmHg 50%
    01:00 +28°C° 0 mm 3 mps 747 mmHg 50%
    02:00 +27°C° 0 mm 3 mps 747 mmHg 49%
    03:00 +27°C° 0 mm 3 mps 747 mmHg 49%
    04:00 +28°C° 0 mm 3 mps 747 mmHg 49%
    05:00 +28°C° 0 mm 3 mps 747 mmHg 48%
    06:00 +29°C° 0 mm 3 mps 748 mmHg 48%
    07:00 +30°C° 0 mm 4 mps 748 mmHg 43%
    08:00 +33°C° 0 mm 4 mps 748 mmHg 38%
    09:00 +34°C° 0 mm 5 mps 748 mmHg 33%
    10:00 +35°C° 0 mm 5 mps 748 mmHg 32%
    11:00 +36°C° 0 mm 6 mps 748 mmHg 31%
    12:00 +38°C° 0 mm 6 mps 748 mmHg 30%
    13:00 +38°C° 0 mm 6 mps 748 mmHg 30%
    14:00 +38°C° 0 mm 6 mps 748 mmHg 30%
    15:00 +38°C° 0 mm 6 mps 748 mmHg 30%
    16:00 +36°C° 0 mm 6 mps 748 mmHg 33%
    17:00 +35°C° 0 mm 6 mps 748 mmHg 35%
    18:00 +34°C° 0 mm 6 mps 748 mmHg 38%
    19:00 +32°C° 0 mm 5 mps 748 mmHg 42%
    20:00 +30°C° 0 mm 5 mps 749 mmHg 47%
    21:00 +28°C° 0 mm 5 mps 749 mmHg 52%
    22:00 +28°C° 0 mm 5 mps 749 mmHg 52%
    23:00 +27°C° 0 mm 4 mps 748 mmHg 53%

    26 June, Tuesday

    Time Temperature Precipitation Wind Pressure Humidity
    00:00 +27°C° 0 mm 4 mps 748 mmHg 53%
    01:00 +27°C° 0 mm 4 mps 748 mmHg 53%
    02:00 +26°C° 0 mm 4 mps 748 mmHg 53%
    03:00 +26°C° 0 mm 4 mps 748 mmHg 53%
    04:00 +26°C° 0 mm 4 mps 748 mmHg 52%
    05:00 +27°C° 0 mm 4 mps 748 mmHg 51%
    06:00 +27°C° 0 mm 4 mps 748 mmHg 50%
    07:00 +29°C° 0 mm 4 mps 748 mmHg 44%
    08:00 +32°C° 0 mm 4 mps 748 mmHg 38%
    09:00 +33°C° 0 mm 5 mps 748 mmHg 33%
    10:00 +34°C° 0 mm 5 mps 748 mmHg 32%
    11:00 +35°C° 0 mm 6 mps 748 mmHg 31%
    12:00 +36°C° 0 mm 6 mps 748 mmHg 29%
    13:00 +36°C° 0 mm 6 mps 748 mmHg 31%
    14:00 +36°C° 0 mm 6 mps 747 mmHg 32%
    15:00 +36°C° 0 mm 6 mps 747 mmHg 33%
    16:00 +35°C° 0 mm 6 mps 747 mmHg 35%
    17:00 +34°C° 0 mm 6 mps 747 mmHg 38%
    18:00 +33°C° 0 mm 6 mps 747 mmHg 41%
    19:00 +30°C° 0 mm 6 mps 747 mmHg 45%
    20:00 +29°C° 0 mm 5 mps 747 mmHg 50%
    21:00 +28°C° 0 mm 5 mps 748 mmHg 54%
    22:00 +27°C° 0 mm 5 mps 748 mmHg 55%
    23:00 +27°C° 0 mm 5 mps 748 mmHg 57%

    27 June, Wednesday

    Time Temperature Precipitation Wind Pressure Humidity
    00:00 +27°C° 0 mm 4 mps 747 mmHg 58%
    01:00 +26°C° 0 mm 4 mps 747 mmHg 58%
    02:00 +26°C° 0 mm 4 mps 747 mmHg 59%
    03:00 +26°C° 0 mm 4 mps 747 mmHg 59%
    04:00 +26°C° 0 mm 4 mps 748 mmHg 57%
    05:00 +27°C° 0 mm 4 mps 748 mmHg 55%
    06:00 +27°C° 0 mm 4 mps 748 mmHg 53%
    07:00 +29°C° 0 mm 5 mps 748 mmHg 48%
    08:00 +30°C° 0 mm 5 mps 748 mmHg 43%
    09:00 +33°C° 0 mm 5 mps 748 mmHg 38%
    10:00 +34°C° 0 mm 6 mps 748 mmHg 36%
    11:00 +35°C° 0 mm 6 mps 748 mmHg 34%
    12:00 +36°C° 0 mm 6 mps 748 mmHg 32%
    13:00 +36°C° 0 mm 6 mps 748 mmHg 32%
    14:00 +36°C° 0 mm 7 mps 747 mmHg 32%
    15:00 +36°C° 0 mm 7 mps 747 mmHg 32%
    16:00 +34°C° 0 mm 7 mps 747 mmHg 36%
    17:00 +33°C° 0 mm 6 mps 747 mmHg 39%
    18:00 +32°C° 0 mm 6 mps 747 mmHg 42%
    19:00 +30°C° 0 mm 6 mps 747 mmHg 47%
    20:00 +28°C° 0 mm 5 mps 748 mmHg 53%
    21:00 +27°C° 0 mm 5 mps 748 mmHg 58%
    22:00 +27°C° 0 mm 5 mps 748 mmHg 59%
    23:00 +26°C° 0 mm 4 mps 748 mmHg 61%
    Show more